[[{"header":{"parameterUnit":"m.s-1","parameterCategory":1,"la1":30.2991,"la2":30.254,"lo1":-89.0895,"lo2":-89.0444,"dy":0.0017,"dx":0.0017,"nx":28,"ny":28,"refTime":"2023-11-06T03:00:00:Z","depth":0,"parameterNumber":2,"parameterNumberName":"U-component_of_WINDS"},"data":[0,0,0,0,0,0,0,0,0,0,0,0,0,0,0,0,0,0,0,0,0,0,0,0,0,0,0,0,0,0,0,0,0,0,0,0,0,0,0,0,0,0,0,0,0,0,0,0,0,0,0,0,0,0,0,0,0,0,0.6104,0.6104,0,0.6141,0.6141,0.6142,0.6127,0.6126,0.6125,0.6124,0.6161,0.6163,0.6165,0,0,0,0,0,0,0,0,0,0,0,0,0,0.6017,0.6019,0.6103,0.6104,0.6104,0.6141,0.6141,0.6142,0.6127,0.6126,0.6125,0.6124,0.616,0.6163,0.6165,0,0,0,0,0,0,0,0,0,0,0,0,0,0.6055,0.6019,0.6103,0.6101,0.6102,0.6141,0.6141,0.6142,0.6127,0.6126,0.6124,0.6123,0.616,0.6162,0.6165,0.6208,0,0,0.6173,0.6174,0,0,0,0,0,0,0,0,0.6052,0.6058,0.6101,0.6102,0.6102,0.6128,0.6124,0.6164,0.6127,0.6117,0.6124,0.6123,0.6151,0.6154,0.6164,0.621,0.6211,0.6173,0.6175,0.6176,0.6177,0,0,0,0,0,0,0,0.605,0.6056,0.6118,0.6102,0.6102,0.6098,0.6102,0.6132,0.6141,0.6118,0.6117,0.6122,0.6151,0.6162,0.6165,0.6212,0.6173,0.6176,0.6177,0.6179,0.6293,0.6294,0,0,0,0,0,0,0.6047,0.6054,0.6117,0.6119,0.6073,0.6101,0.6105,0.6121,0.6141,0.6142,0.6123,0.6121,0.6158,0.6162,0.6166,0.6217,0.6176,0.6179,0.618,0.6292,0.6293,0.6295,0,0,0,0,0,0,0.6046,0.6053,0.6115,0.6086,0.6094,0.6103,0.6121,0.6122,0.6133,0.6144,0.6146,0.6132,0.6157,0.6162,0.6197,0.6218,0.618,0.6182,0.629,0.6292,0.6294,0.6319,0,0,0,0,0,0,0.6043,0.6053,0.607,0.6087,0.6096,0.6147,0.6123,0.6124,0.6138,0.6136,0.6153,0.6155,0.6156,0.6193,0.62,0.6221,0.6185,0.6288,0.6291,0.6294,0.6317,0.6322,0.6327,0,0,0,0,0,0.604,0.6075,0.6071,0.6078,0.6117,0.6148,0.6153,0.6154,0.6139,0.6156,0.6163,0.6155,0.6215,0.6197,0.6205,0.6227,0.6287,0.629,0.6293,0.6315,0.6321,0.6327,0,0,0,0,0,0,0.606,0.6077,0.6073,0.6114,0.613,0.6146,0.6167,0.6161,0.6181,0.6178,0.6177,0.6182,0.6218,0.6226,0.6206,0.6269,0.6249,0.6253,0.6262,0.6268,0.6273,0.627,0.6187,0,0,0,0,0,0.6069,0.6093,0.6107,0.6142,0.6151,0.6157,0.6171,0.617,0.6186,0.6193,0.6202,0.6218,0.624,0.6255,0.6276,0.6318,0.6321,0.6336,0.6341,0.6345,0.635,0.6371,0.6378,0.6306,0.6306,0.6305,0,0,0.6088,0.61,0.6116,0.6147,0.6159,0.6183,0.6163,0.619,0.6208,0.6196,0.623,0.6238,0.6255,0.6293,0.6311,0.6301,0.637,0.635,0.6353,0.6355,0.6375,0.6382,0.6388,0.6308,0.6307,0.6307,0,0,0.6135,0.6147,0.6178,0.619,0.6209,0.6213,0.622,0.6237,0.6242,0.6276,0.6267,0.6288,0.6327,0.6339,0.6351,0.6402,0.6394,0.6409,0.6435,0.6456,0.6462,0.6467,0.6484,0.6491,0.6413,0.6413,0.6413,0,0.6156,0.6193,0.6194,0.6222,0.6235,0.6226,0.6256,0.6268,0.6293,0.6302,0.6291,0.6338,0.6349,0.639,0.6403,0.6412,0.642,0.6407,0.6461,0.6466,0.6471,0.6487,0.6494,0.6414,0.6414,0.6414,0.6414,0,0.6218,0.6244,0.6266,0.629,0.6306,0.6335,0.6339,0.6355,0.6353,0.6358,0.6392,0.6405,0.6428,0.6438,0.6436,0.6478,0.6472,0.6461,0.6441,0.6479,0.6495,0.6501,0.6417,0.6416,0.6416,0.6415,0,0,0.6278,0.6302,0.631,0.6321,0.6341,0.636,0.6388,0.6411,0.6425,0.6441,0.6464,0.6497,0.6487,0.65,0.6499,0.6518,0.6557,0.6505,0.6505,0.6513,0.6603,0.6611,0.6618,0.6552,0.6553,0.6554,0.6602,0,0.6326,0.6376,0.6377,0.6423,0.6446,0.6438,0.6462,0.6476,0.6482,0.6502,0.6507,0.653,0.6516,0.6523,0.6542,0.6548,0.6575,0.6545,0.6572,0.6573,0.6568,0.6627,0.6635,0.668,0.6608,0.6609,0.661,0,0.6389,0.6408,0.6456,0.6472,0.6482,0.6504,0.6525,0.6544,0.656,0.6562,0.6577,0.6573,0.66,0.658,0.6617,0.6597,0.6608,0.6613,0.6615,0.6617,0.6594,0.663,0.6694,0.67,0.6619,0.6619,0.6618,0,0.6427,0.6465,0.6499,0.6508,0.6527,0.6543,0.6552,0.6566,0.658,0.6598,0.6606,0.6627,0.6639,0.6655,0.6656,0.6641,0.6694,0.6673,0.6696,0.6696,0.6707,0.6707,0.6773,0.6716,0.6716,0.6715,0.6715,0,0.6481,0.651,0.6516,0.6537,0.6569,0.657,0.6601,0.6609,0.6622,0.6643,0.6637,0.6656,0.6658,0.6678,0.6679,0.671,0.6715,0.6717,0.6717,0.6718,0.6717,0.6725,0.6722,0.6717,0.6717,0.6716,0.6716,0,0.6529,0.6534,0.657,0.6585,0.659,0.6613,0.6626,0.6645,0.665,0.6676,0.6683,0.669,0.6713,0.6717,0.6744,0.6745,0.6781,0.6778,0.6776,0.6775,0.6798,0.6795,0.6871,0.6881,0.6817,0.6818,0.6819,0,0.6562,0.6585,0.6603,0.6617,0.6626,0.6649,0.6663,0.6664,0.6679,0.6698,0.6715,0.6737,0.6756,0.6793,0.68,0.6821,0.6818,0.6843,0.6821,0.682,0.6818,0.6816,0.6818,0.6847,0.6848,0.6848,0.6849,0,0.6621,0.6622,0.6643,0.6665,0.6681,0.6698,0.6714,0.6726,0.6729,0.6746,0.677,0.6784,0.6812,0.6834,0.6854,0.6862,0.6856,0.6856,0.6862,0.6862,0.686,0.6861,0.6787,0.6854,0.6854,0.6853,0.6853,0.6853,0.6662,0.6681,0.6697,0.672,0.6732,0.6747,0.6766,0.6773,0.6793,0.6816,0.6816,0.6842,0.6856,0.6883,0.6892,0.6912,0.6904,0.6913,0.6915,0.6917,0.6919,0.6857,0.6916,0.6916,0.6916,0.6915,0.6915,0,0.672,0.6729,0.6751,0.6773,0.6791,0.6784,0.6801,0.6817,0.684,0.6854,0.6872,0.6899,0.6921,0.693,0.6951,0.6965,0.6962,0.697,0.6969,0.6971,0.6926,0.6918,0.6972,0.6972,0.6972,0.6972,0.6972,0.6972,0.6752,0.6784,0.6787,0.6825,0.6834,0.686,0.687,0.6884,0.6895,0.6926,0.6944,0.695,0.6962,0.6983,0.7003,0.7005,0.7012,0.7021,0.7022,0.698,0.6974,0.6969,0.6961,0.7023,0.7023,0.7065,0.7065,0.7066]},{"header":{"parameterUnit":"m.s-1","parameterCategory":1,"la1":30.2991,"la2":30.254,"lo1":-89.0895,"lo2":-89.0444,"dy":0.0017,"dx":0.0017,"nx":28,"ny":28,"refTime":"2023-11-06T03:00:00:Z","depth":0,"parameterNumber":3,"parameterNumberName":"V-component_of_WINDS"},"data":[0,0,0,0,0,0,0,0,0,0,0,0,0,0,0,0,0,0,0,0,0,0,0,0,0,0,0,0,0,0,0,0,0,0,0,0,0,0,0,0,0,0,0,0,0,0,0,0,0,0,0,0,0,0,0,0,0,0,2.8721,2.8721,0,2.8685,2.8685,2.8684,2.8606,2.8605,2.8603,2.8602,2.8566,2.8567,2.8567,0,0,0,0,0,0,0,0,0,0,0,0,0,2.8724,2.8724,2.8721,2.8721,2.872,2.8685,2.8685,2.8684,2.8607,2.8605,2.8603,2.8601,2.8566,2.8567,2.8567,0,0,0,0,0,0,0,0,0,0,0,0,0,2.8709,2.8724,2.8721,2.8677,2.8673,2.8685,2.8685,2.8684,2.8607,2.8605,2.8602,2.86,2.8566,2.8567,2.8568,2.862,0,0,2.857,2.857,0,0,0,0,0,0,0,0,2.871,2.8709,2.8684,2.868,2.8675,2.8648,2.8672,2.8663,2.8608,2.8632,2.8602,2.8599,2.8595,2.8594,2.8592,2.8619,2.8617,2.857,2.8571,2.8571,2.8571,0,0,0,0,0,0,0,2.8711,2.871,2.8707,2.8684,2.8679,2.866,2.8655,2.867,2.8628,2.863,2.8624,2.8621,2.8593,2.8592,2.8591,2.8616,2.857,2.8571,2.8571,2.8572,2.8684,2.8686,0,0,0,0,0,0,2.8718,2.8711,2.8708,2.8706,2.8687,2.8662,2.8656,2.8659,2.8627,2.862,2.8623,2.8617,2.8591,2.859,2.8589,2.8648,2.8571,2.8572,2.8572,2.8681,2.8684,2.8687,0,0,0,0,0,0,2.8718,2.8718,2.8709,2.8707,2.8704,2.8664,2.8668,2.866,2.8658,2.8622,2.8614,2.863,2.8589,2.8588,2.8613,2.8646,2.8572,2.8573,2.8678,2.8682,2.8685,2.8768,0,0,0,0,0,0,2.8719,2.8719,2.8739,2.8708,2.8705,2.8734,2.867,2.8661,2.866,2.8652,2.8626,2.862,2.8587,2.8612,2.8614,2.8646,2.8573,2.8675,2.868,2.8684,2.8762,2.8774,2.8784,0,0,0,0,0,2.8719,2.8764,2.874,2.874,2.8728,2.8736,2.8734,2.8696,2.8663,2.8682,2.8659,2.862,2.8642,2.8615,2.8616,2.8649,2.8673,2.8679,2.8684,2.8757,2.8771,2.8784,0,0,0,0,0,0,2.88,2.8759,2.8732,2.8768,2.8756,2.8723,2.8746,2.8712,2.871,2.8703,2.8656,2.8651,2.8682,2.8668,2.8639,2.8698,2.8651,2.8657,2.8706,2.872,2.8731,2.8733,2.8574,0,0,0,0,0,2.8822,2.8831,2.8795,2.883,2.8825,2.8787,2.8788,2.876,2.8746,2.874,2.8719,2.8707,2.8711,2.8714,2.8716,2.8759,2.8752,2.8782,2.8794,2.8803,2.8809,2.883,2.8843,2.8705,2.8705,2.8705,0,0,2.8867,2.8846,2.8855,2.8845,2.8833,2.8843,2.8783,2.8797,2.8805,2.8743,2.8764,2.8748,2.8732,2.8766,2.878,2.8755,2.8845,2.881,2.8818,2.8818,2.8837,2.885,2.8862,2.8709,2.8708,2.8708,0,0,2.8955,2.894,2.8967,2.8956,2.8937,2.8911,2.8918,2.8889,2.8876,2.8897,2.8851,2.8859,2.8867,2.8857,2.8853,2.8937,2.8902,2.8939,2.8997,2.9018,2.9029,2.9039,2.9069,2.908,2.8945,2.8945,2.8945,0,2.9014,2.9028,2.8986,2.9003,2.9,2.8944,2.8971,2.8962,2.8945,2.8945,2.8917,2.8926,2.8911,2.8942,2.8962,2.8961,2.8967,2.8942,2.9031,2.904,2.9048,2.9076,2.9088,2.895,2.8949,2.8949,2.8948,0,2.9102,2.9112,2.9137,2.9121,2.9121,2.9143,2.9104,2.9109,2.9081,2.9058,2.908,2.906,2.9056,2.9061,2.9034,2.9088,2.9073,2.904,2.8991,2.9067,2.9092,2.9102,2.8957,2.8955,2.8953,2.8952,0,0,2.924,2.92,2.921,2.9202,2.9177,2.9184,2.9204,2.92,2.9205,2.9195,2.9211,2.9218,2.9186,2.9182,2.9153,2.9172,2.9239,2.9135,2.9134,2.9155,2.9297,2.9323,2.9336,2.9215,2.9217,2.9219,2.9299,0,2.9323,2.9353,2.9315,2.9354,2.9363,2.931,2.9327,2.9314,2.9293,2.9297,2.9274,2.928,2.9238,2.9235,2.9251,2.9228,2.9267,2.9221,2.9229,2.923,2.9235,2.935,2.9377,2.9454,2.9308,2.931,2.9311,0,2.9423,2.9417,2.9457,2.9429,2.9431,2.9447,2.944,2.9445,2.9429,2.9413,2.9408,2.9372,2.939,2.9343,2.9366,2.9336,2.9337,2.9326,2.9328,2.9327,2.9276,2.9352,2.9477,2.9489,2.9327,2.9325,2.9324,0,2.952,2.9522,2.9546,2.9541,2.9509,2.9521,2.9509,2.949,2.949,2.9484,2.9483,2.9479,2.9478,2.9476,2.944,2.941,2.9468,2.9418,2.9455,2.9456,2.947,2.947,2.9597,2.9471,2.9471,2.947,2.947,0,2.9616,2.9643,2.9589,2.9604,2.9632,2.9588,2.9617,2.9599,2.9583,2.9593,2.9547,2.9558,2.951,2.9516,2.9489,2.9512,2.9512,2.9499,2.9491,2.9503,2.9505,2.9503,2.9497,2.9473,2.9473,2.9472,2.9472,0,2.9729,2.9695,2.9717,2.9684,2.9677,2.9699,2.9671,2.9684,2.9659,2.9673,2.9674,2.9636,2.9641,2.9605,2.9603,2.9585,2.9621,2.9604,2.9626,2.9621,2.966,2.9657,2.9791,2.9806,2.967,2.9672,2.9673,0,2.9793,2.9812,2.9781,2.9784,2.9774,2.978,2.9779,2.9737,2.9738,2.9721,2.9735,2.9736,2.9734,2.9744,2.9716,2.9714,2.9697,2.9744,2.9697,2.9708,2.9698,2.9697,2.9699,2.9754,2.9756,2.9757,2.9759,0,2.991,2.9891,2.9892,2.9886,2.9887,2.9881,2.9871,2.9877,2.9831,2.9835,2.9838,2.9837,2.9834,2.9835,2.9828,2.9815,2.978,2.9774,2.9782,2.9794,2.9806,2.98,2.9654,2.9771,2.977,2.9769,2.9768,2.9768,3.0,3.0014,2.9994,2.9996,2.9985,2.9977,2.9987,2.9964,2.9966,2.996,2.9935,2.9943,2.9926,2.9912,2.9903,2.9908,2.9886,2.9898,2.9901,2.9905,2.9912,2.9805,2.9907,2.9907,2.9906,2.9906,2.9906,0,3.0114,3.0098,3.0101,3.0089,3.0091,3.0056,3.0044,3.0048,3.0056,3.0042,3.0041,3.0045,3.0046,3.0018,3.0016,3.0026,3.0009,3.0026,3.0025,3.0023,2.9932,2.9925,3.004,3.004,3.004,3.004,3.004,3.004,3.0173,3.0195,3.0175,3.0191,3.0175,3.0182,3.0178,3.0171,3.016,3.0167,3.0167,3.0148,3.0129,3.0125,3.0124,3.0116,3.0117,3.014,3.0126,3.0042,3.0029,3.0017,3.001,3.014,3.0141,3.0216,3.0217,3.0217]}]]